Temp_Advection
nan nan nan nan nan nan nan nan nan nan nan nan nan nan nan nan nan nan nan nan nan nan nan nan nan nan nan nan nan nan nan nan nan nan nan nan nan nan nan nan nan nan nan nan
nan -1 -1 -1 -1 -1 -0 -0 -0 0 0 -0 0 -0 -0 0 0 -0 -0 -0 0 0 -0 0 -0 0 0 0 0 0 -0 -0 0 -0 0 -0 0 0 0 -0 0 -0 -0 nan
nan -0 -1 -1 -1 -1 -0 0 -0 -0 0 -0 -0 -0 -0 0 -0 -0 0 0 0 0 0 -0 0 0 0 0 0 0 -0 -0 -0 -0 -0 -0 -0 -0 0 -0 -0 -0 -0 nan
nan -0 -0 -1 -1 -1 -0 0 -0 0 -0 -0 -0 -0 0 0 0 0 0 0 0 0 0 0 0 0 0 0 0 0 0 -0 -0 0 -0 -0 -0 0 0 0 -0 0 0 nan
nan -0 -0 -0 -1 -1 -0 -0 -0 0 -0 -0 0 0 -0 -0 -0 -0 -0 0 -0 0 0 0 0 -0 -0 -0 0 0 0 -0 -0 -0 0 0 0 0 0 -0 0 -0 -0 nan
nan -0 -0 -0 -0 -1 -0 -0 -0 -0 0 0 0 -0 -0 -0 0 -0 0 -0 0 -0 -0 -0 0 0 0 0 -0 0 0 0 0 -0 -0 0 0 -0 -0 -0 -0 -0 -0 nan
nan 0 -0 -0 -0 -0 -0 -0 -0 0 0 0 -0 -0 0 0 0 0 0 -0 0 -0 -0 0 0 0 0 0 0 0 0 0 -0 -0 -0 -0 -0 -0 0 -0 -0 0 -0 nan
nan 0 0 -0 -0 0 -0 -0 -0 0 0 -0 -0 -0 0 0 0 0 0 0 0 0 -0 -0 -0 -0 -0 0 0 0 0 0 -0 0 0 -1 0 0 -0 -0 0 -0 -0 nan
nan 0 -0 0 -0 -0 -0 -0 -0 0 0 -0 -0 -0 0 0 0 -0 0 0 0 0 -0 0 0 -0 0 0 0 -0 -0 0 0 0 -0 -0 0 -0 -0 -0 0 -0 -0 nan
nan -0 -0 -0 -0 0 -0 -0 0 0 -0 -0 0 0 -0 -0 -0 0 0 0 0 1 0 0 0 -0 0 0 0 0 0 0 0 0 -0 -0 -0 0 0 0 0 -0 -0 nan
nan -0 -0 -0 -0 -0 -0 -0 0 0 -0 -1 -0 -0 -1 -0 0 -0 -0 -0 0 0 -0 0 0 0 0 0 -0 -0 -0 -0 -0 0 -0 -1 -0 0 -0 -0 -0 -0 -0 nan
nan -0 -0 -0 -0 -0 -0 -0 -0 0 0 -1 -1 -0 0 -0 -1 -0 0 0 -0 -1 -0 0 0 0 0 -0 0 -0 -0 -0 -0 -0 -1 -0 -1 -0 -1 -0 -0 -0 -0 nan
nan -0 -1 -0 -0 -0 0 -0 -0 -0 -0 -1 -1 -2 -1 0 -1 1 0 -1 -0 -0 0 -0 0 0 -0 0 -0 -0 -0 0 -0 0 -0 -0 -1 -0 0 0 0 0 0 nan
nan -0 -0 -0 -0 -0 1 0 -0 -1 -0 -0 -1 -1 -1 -1 0 0 1 0 0 0 1 1 0 -0 -0 0 0 0 0 0 -0 -0 -0 -0 -1 -1 0 1 0 0 0 nan
nan -0 -0 -1 -0 -0 -1 -0 -0 0 0 -0 -0 -0 -1 -0 -1 -0 1 1 1 1 0 0 -0 -0 0 0 -0 -0 -1 -1 -0 -1 -1 -0 -0 -0 1 1 0 0 0 nan
nan -0 -0 -1 -0 0 -1 -1 -0 0 1 0 -0 -0 -0 -1 -1 1 2 2 1 0 0 -0 -1 -0 0 0 -1 -1 -3 -2 -1 -0 -0 1 0 0 0 0 1 1 1 nan
nan -0 -0 -1 -0 0 -1 -1 -0 -0 0 0 0 0 0 1 1 1 1 1 0 0 1 0 0 0 1 -0 -2 -0 -0 -0 0 1 2 0 -0 0 0 0 1 1 1 nan
nan -1 -1 -0 -0 -1 -2 -1 1 0 -0 0 0 0 0 0 0 0 0 0 0 0 0 0 0 0 0 -0 -0 -2 -0 -0 -0 1 1 1 0 0 0 0 0 1 1 nan
nan -1 -1 -1 0 -0 -0 -0 -1 0 1 0 0 -0 0 -0 -0 0 0 0 -0 -0 -0 -0 -0 0 -0 -0 -1 -1 -0 1 0 1 1 1 0 0 0 1 1 1 1 nan
nan -1 -0 -0 -0 -0 -0 -0 0 0 0 0 -0 0 0 -0 0 -0 -0 -0 -0 -0 -0 -0 -0 -0 -1 -0 -1 -1 0 0 0 0 0 1 0 0 1 1 1 1 1 nan
nan -0 -0 -0 -0 -0 -0 0 0 0 0 0 -0 1 -0 0 -0 -0 0 -0 0 -0 0 -0 0 0 -0 -0 -0 -0 -0 -0 -0 -0 1 0 0 1 1 1 1 1 1 nan
nan -0 -0 -0 -0 -0 -0 0 0 -0 0 0 -0 0 0 0 0 -0 0 -0 0 0 0 -0 0 -0 0 -0 -0 -0 -0 -0 0 0 0 0 0 0 1 1 1 1 1 nan
nan 0 0 0 0 -0 0 -0 -0 -0 -0 -0 -0 -0 0 0 0 0 -0 -0 0 0 0 0 0 -0 -0 -0 -0 -0 -0 -0 0 0 0 0 0 0 0 1 0 0 0 nan
nan 0 -0 -0 -0 0 0 -0 0 -0 -0 -0 -0 0 -0 0 -0 0 0 -0 0 -0 0 0 -0 -0 -0 -0 -0 -0 -0 0 0 0 0 0 0 0 0 0 0 -0 -0 nan
nan -0 -0 -0 -0 -0 0 0 -0 -0 -0 -0 -0 0 0 -0 -0 -0 -0 0 0 0 0 0 0 -0 -0 -0 -0 -0 -0 -0 0 0 0 0 0 0 0 -0 -0 -0 0 nan
nan 0 0 -0 0 -0 -0 -0 -0 -0 -0 -0 -0 -0 -0 -0 -0 -0 -0 0 -0 -0 -0 -0 0 0 -0 -0 0 0 0 0 0 -0 -0 -0 -0 -0 -0 -0 -0 0 0 nan
nan nan nan nan nan nan nan nan nan nan nan nan nan nan nan nan nan nan nan nan nan nan nan nan nan nan nan nan nan nan nan nan nan nan nan nan nan nan nan nan nan nan nan nan
Wind_Speed
17 17 16 18 20 18 16 3 1 1 0 1 3 2 4 4 3 2 2 1 2 2 1 1 2 2 2 2 2 1 0 4 2 2 3 2 1 4 4 4 3 0 3 6
16 15 14 15 18 18 17 9 2 2 1 2 0 2 2 2 4 4 3 3 3 2 2 2 2 3 2 1 1 1 1 1 3 7 4 3 4 5 5 4 2 4 4 5
15 13 14 12 14 15 12 3 2 2 3 3 7 4 3 3 3 2 3 3 1 1 2 2 2 2 3 2 1 1 1 2 4 7 5 4 4 4 4 4 4 4 6 6
15 13 14 12 11 12 7 2 2 2 3 2 3 5 6 4 3 4 4 2 5 6 4 2 3 2 1 2 3 2 3 3 3 5 6 5 6 5 7 8 5 5 4 7
14 15 14 12 10 10 4 4 1 2 4 4 3 3 7 8 4 7 4 5 2 6 5 6 6 5 4 4 2 3 2 2 1 4 3 6 6 8 9 9 6 9 5 16
13 13 13 13 13 10 4 5 4 4 3 1 3 4 4 7 7 6 4 7 2 5 7 5 3 4 2 2 5 5 3 4 3 4 3 4 8 13 15 6 6 8 9 10
16 14 14 10 10 9 8 7 6 2 4 2 5 1 4 5 5 3 5 7 5 2 5 3 2 2 4 5 5 5 4 3 3 3 3 4 6 3 3 11 7 12 5 5
18 16 15 14 10 7 7 9 6 3 4 4 7 5 4 2 3 3 5 8 5 7 5 3 2 3 3 2 1 4 3 3 2 3 3 7 4 3 6 7 7 9 13 6
16 15 16 15 14 11 11 9 8 5 2 5 4 2 4 3 2 3 3 4 8 7 3 3 5 5 5 3 2 3 4 3 3 2 3 6 4 3 3 2 5 3 6 9
14 13 15 15 13 14 14 14 11 8 6 10 5 4 3 3 2 1 1 4 6 8 2 3 4 5 5 5 7 6 4 2 7 4 4 8 7 6 6 2 5 3 3 8
12 12 13 15 14 13 16 16 15 14 10 26 26 26 17 9 4 4 5 3 3 2 3 4 4 4 6 3 5 7 8 8 4 3 3 8 10 5 6 5 3 3 4 6
11 12 12 12 14 14 16 18 18 19 25 17 19 19 21 18 22 11 9 3 4 10 2 2 1 3 1 3 4 2 4 7 6 10 7 4 22 6 15 5 5 7 7 9
13 13 13 13 13 13 15 17 18 18 20 27 35 33 32 31 32 31 18 15 14 7 9 4 2 4 4 4 5 3 4 6 3 2 6 13 15 24 15 15 15 11 10 10
15 14 16 15 15 14 17 18 17 21 10 6 11 28 30 29 25 22 29 32 20 14 11 7 3 3 7 4 3 5 5 8 5 5 7 8 13 21 27 21 17 15 14 15
17 18 19 18 17 18 22 25 26 25 21 6 7 10 16 21 25 23 23 28 31 19 7 3 4 5 2 3 1 3 7 7 5 7 12 9 8 7 15 24 25 21 19 18
16 16 18 20 18 20 21 10 6 18 26 8 4 8 17 28 31 29 25 25 24 21 9 7 8 6 7 4 7 7 25 25 27 24 23 20 16 15 13 13 17 20 19 19
19 18 19 20 18 18 16 8 4 8 18 8 4 6 6 17 21 20 21 21 15 14 9 7 6 7 12 3 17 5 15 23 30 33 28 15 20 13 12 14 15 17 17 17
20 22 22 23 20 24 31 30 27 20 14 5 3 3 3 9 6 6 11 9 14 9 6 3 4 7 5 6 3 20 30 31 29 25 24 22 18 17 14 14 16 19 20 18
19 23 24 23 17 10 15 17 15 29 26 7 7 3 3 7 4 3 5 7 3 5 2 4 7 4 6 6 11 21 23 25 22 22 20 20 22 24 21 20 20 21 22 21
21 22 8 5 3 12 13 6 10 14 12 11 5 9 3 11 11 5 1 4 2 2 4 6 3 4 18 15 17 18 17 17 15 9 13 18 20 20 21 22 20 18 17 17
17 3 5 10 19 13 6 6 7 6 3 7 6 21 6 12 3 3 12 3 2 3 3 4 3 3 3 6 8 10 19 14 17 20 21 19 20 20 20 19 17 15 16 18
5 8 16 14 4 5 5 3 3 3 3 2 2 4 8 8 8 3 5 4 4 4 6 2 3 2 5 6 5 4 2 6 10 12 12 11 12 13 15 16 15 15 15 13
8 5 4 3 5 4 4 3 2 1 6 2 1 1 4 6 8 4 3 4 4 9 4 3 3 6 9 8 8 8 6 3 5 7 9 8 6 8 11 14 15 14 11 12
7 6 4 3 4 1 0 2 2 5 5 7 2 1 1 2 1 1 3 2 2 1 1 1 2 12 12 6 5 3 2 0 1 1 3 5 6 10 10 10 9 12 12 10
5 5 4 2 3 3 4 8 7 7 8 5 0 1 1 0 1 1 1 0 1 1 1 1 7 8 6 5 5 3 2 2 1 2 5 6 6 7 8 10 11 10 8 8
3 4 0 3 2 2 3 4 5 6 9 4 3 2 2 2 3 1 1 2 0 1 2 7 9 9 8 7 6 5 3 2 4 3 3 4 5 6 6 7 9 10 13 17
3 3 5 2 3 3 2 2 5 3 4 1 2 3 1 2 3 2 2 1 2 6 7 6 9 11 12 10 8 7 5 4 4 4 4 5 7 10 12 15 16 18 20 21
Wind_Direction
316 315 325 334 336 346 350 351 9 358 202 41 48 165 179 171 198 209 250 246 242 234 277 194 185 220 211 344 331 173 53 132 158 234 329 343 211 180 152 121 223 171 148 275
315 318 319 329 332 345 347 332 272 237 203 139 295 275 294 228 163 208 190 228 213 200 252 250 198 214 196 160 82 185 14 32 50 350 352 7 241 206 165 124 85 212 135 265
334 322 329 323 328 335 341 333 347 245 221 147 144 170 211 251 228 245 211 209 196 199 235 225 243 220 222 195 163 147 125 179 182 185 204 145 219 210 203 144 136 188 216 266
339 334 327 327 329 332 328 299 220 173 280 286 185 152 169 178 235 222 212 266 220 187 204 211 226 199 235 235 186 163 140 231 217 256 240 209 211 210 186 200 202 179 272 215
324 335 343 333 333 343 312 320 356 292 263 274 235 200 208 191 182 160 232 199 207 207 210 198 197 167 202 211 211 182 156 245 347 281 288 243 263 241 221 220 219 253 248 265
298 313 324 344 335 352 348 348 312 292 256 214 115 242 203 204 173 208 221 196 176 200 221 210 237 231 230 193 170 199 168 154 109 260 335 328 289 231 211 197 209 187 203 227
285 293 304 313 342 346 351 348 325 274 275 206 206 241 236 217 201 206 196 197 170 203 179 165 192 239 250 225 215 182 157 148 150 254 3 247 243 169 187 217 238 219 259 210
275 278 284 293 295 305 319 318 324 298 282 251 292 259 228 228 222 206 207 208 201 168 141 63 10 335 338 255 154 175 156 138 214 202 206 293 285 211 179 176 274 211 227 206
282 275 282 270 278 277 272 285 289 288 303 254 278 288 213 204 227 328 221 203 183 173 116 135 203 223 215 224 194 36 85 91 153 147 212 235 236 178 163 143 287 184 185 205
274 269 273 275 266 265 265 265 263 271 257 277 271 232 227 192 178 180 197 173 180 192 141 187 187 231 181 188 182 169 151 197 209 203 242 285 248 164 145 145 247 195 220 210
289 291 288 282 273 267 261 259 260 247 247 265 269 272 266 266 225 167 153 113 209 108 187 186 224 219 225 162 174 176 166 158 193 154 193 268 162 114 177 210 172 212 205 195
303 302 299 295 292 283 277 273 255 256 245 252 264 263 265 271 254 257 205 263 177 199 163 230 163 228 222 196 230 136 206 189 179 186 210 242 190 211 211 216 224 213 219 219
305 305 301 301 299 294 286 279 267 283 258 264 263 265 270 261 253 250 239 246 247 223 226 204 234 231 134 188 236 214 254 182 213 145 232 235 239 227 243 234 235 235 230 232
284 294 298 302 304 298 288 281 264 259 265 262 251 250 269 266 259 248 246 238 236 235 232 218 201 205 199 222 245 200 198 148 199 257 282 272 264 244 243 237 233 239 236 232
288 282 286 290 298 299 293 281 267 248 227 295 293 263 255 262 257 253 244 233 231 228 203 190 220 211 218 213 86 221 196 188 190 245 228 228 238 269 249 239 241 241 242 229
300 300 291 286 287 299 311 312 314 246 228 241 281 282 247 248 247 245 235 229 230 218 208 213 225 210 206 228 246 221 228 236 244 251 267 259 261 257 244 243 250 241 235 237
304 303 297 293 281 283 269 244 241 326 218 219 256 259 237 221 221 219 218 218 214 216 224 229 215 196 200 246 253 207 209 232 243 251 255 248 246 247 252 247 242 237 234 231
297 303 303 300 285 275 273 272 252 245 200 227 249 266 262 197 204 208 192 197 205 216 217 228 189 195 209 255 195 224 238 246 248 252 254 248 258 263 250 248 260 238 227 220
295 299 311 301 278 259 252 259 258 231 227 200 200 204 237 179 199 196 190 191 191 210 221 211 176 182 222 242 222 240 244 237 246 251 248 246 250 259 258 245 224 219 215 215
287 307 311 278 227 288 274 252 209 220 211 221 200 192 188 179 174 165 167 226 230 214 224 173 222 252 257 260 266 266 261 249 234 223 245 247 248 248 238 225 224 225 220 199
284 260 252 270 306 307 252 221 206 203 216 201 218 201 175 199 161 187 179 192 187 220 212 198 211 260 251 320 322 281 254 253 249 264 263 267 263 254 232 220 215 209 197 190
232 267 292 291 275 250 260 229 213 210 216 213 261 215 196 176 179 165 179 189 169 238 155 226 239 282 339 352 354 336 290 252 250 243 251 260 249 236 221 215 200 186 181 200
243 241 263 221 232 241 208 267 268 322 4 340 346 306 208 171 191 194 170 222 218 126 163 215 245 320 346 341 352 356 347 306 251 249 255 248 221 199 198 186 181 208 190 196
192 181 263 211 255 158 139 290 262 300 316 349 323 214 315 346 243 190 199 131 143 267 166 246 303 341 338 335 332 340 353 110 192 215 208 200 187 169 183 200 196 194 193 195
177 168 225 249 281 265 259 290 298 330 323 336 306 97 123 345 260 354 80 149 150 198 212 252 333 345 11 8 355 325 301 292 251 198 223 235 220 203 196 192 195 201 219 245
191 215 106 243 267 304 335 316 298 328 334 352 16 3 36 66 334 23 36 116 339 324 318 345 10 26 30 28 30 27 6 302 279 273 260 242 227 218 216 221 237 254 270 278
175 249 220 246 282 292 334 319 330 349 335 13 36 52 304 350 34 7 1 51 298 330 349 31 41 36 36 34 32 26 16 359 339 318 298 278 262 257 259 263 268 274 277 281
Height
1538 1536 1533 1530 1525 1523 1519 1516 1517 1515 1514 1516 1519 1522 1514 1514 1517 1517 1517 1517 1517 1517 1516 1514 1517 1516 1517 1516 1516 1515 1515 1525 1538 1521 1520 1519 1518 1520 1525 1544 1522 1553 1551 1525
1535 1533 1531 1528 1525 1521 1518 1516 1515 1514 1513 1519 1520 1518 1518 1516 1514 1514 1516 1515 1515 1515 1516 1516 1514 1515 1514 1515 1515 1515 1516 1521 1545 1529 1524 1521 1522 1518 1517 1526 1534 1530 1547 1524
1534 1531 1528 1527 1525 1521 1518 1516 1518 1513 1511 1509 1511 1515 1516 1517 1515 1514 1513 1512 1514 1514 1514 1513 1513 1515 1514 1513 1513 1515 1515 1519 1519 1531 1514 1516 1517 1514 1515 1519 1538 1525 1532 1508
1533 1530 1527 1525 1523 1520 1519 1515 1513 1513 1515 1512 1508 1508 1510 1513 1515 1514 1513 1513 1512 1513 1513 1512 1513 1514 1514 1514 1512 1512 1514 1519 1515 1513 1511 1509 1506 1506 1512 1518 1510 1511 1501 1506
1531 1529 1526 1524 1522 1518 1518 1516 1513 1513 1510 1509 1509 1507 1508 1508 1507 1511 1511 1511 1508 1512 1513 1510 1510 1510 1513 1512 1514 1512 1513 1515 1512 1513 1508 1510 1507 1505 1504 1506 1504 1504 1501 1493
1528 1527 1525 1522 1521 1519 1517 1516 1514 1514 1508 1506 1510 1508 1501 1501 1503 1505 1504 1506 1507 1507 1506 1507 1508 1508 1508 1508 1510 1514 1516 1517 1521 1516 1509 1509 1509 1491 1491 1492 1489 1486 1495 1474
1524 1524 1523 1521 1519 1519 1517 1516 1515 1513 1510 1507 1503 1500 1502 1501 1498 1500 1502 1504 1505 1504 1505 1505 1505 1506 1506 1507 1507 1509 1514 1516 1520 1518 1513 1509 1480 1479 1480 1483 1478 1479 1474 1472
1518 1518 1519 1519 1518 1517 1516 1516 1514 1513 1512 1505 1500 1500 1500 1500 1499 1498 1500 1500 1501 1502 1504 1510 1510 1511 1508 1504 1506 1507 1509 1514 1516 1514 1520 1496 1470 1479 1480 1480 1470 1466 1469 1471
1513 1512 1513 1514 1514 1513 1514 1513 1513 1512 1510 1502 1500 1498 1498 1500 1501 1500 1498 1498 1501 1502 1503 1506 1506 1506 1498 1505 1507 1508 1510 1511 1515 1522 1514 1499 1472 1472 1474 1475 1478 1463 1464 1466
1509 1507 1507 1509 1508 1509 1508 1509 1509 1510 1508 1500 1500 1498 1497 1496 1496 1499 1498 1498 1500 1501 1505 1506 1510 1502 1494 1497 1502 1511 1513 1515 1512 1515 1513 1495 1472 1471 1473 1479 1473 1463 1462 1463
1504 1503 1502 1503 1503 1503 1503 1503 1503 1506 1502 1496 1496 1497 1496 1495 1494 1495 1496 1499 1498 1502 1505 1504 1499 1500 1490 1489 1487 1494 1495 1506 1511 1512 1511 1501 1467 1473 1475 1464 1461 1462 1462 1463
1500 1499 1498 1499 1498 1498 1498 1498 1498 1498 1495 1490 1487 1488 1489 1489 1491 1494 1492 1489 1487 1489 1493 1495 1492 1490 1494 1487 1484 1480 1481 1474 1483 1484 1477 1462 1461 1459 1459 1460 1460 1460 1461 1461
1497 1495 1495 1495 1494 1493 1493 1492 1493 1492 1488 1482 1481 1477 1478 1480 1482 1485 1487 1485 1486 1485 1484 1484 1485 1485 1483 1486 1484 1474 1470 1468 1470 1470 1456 1457 1458 1458 1458 1457 1457 1458 1459 1460
1492 1491 1490 1490 1490 1489 1487 1486 1487 1489 1486 1479 1469 1470 1470 1471 1473 1473 1475 1477 1478 1479 1479 1479 1480 1481 1473 1474 1467 1469 1464 1464 1464 1463 1456 1454 1453 1453 1453 1454 1455 1455 1455 1456
1486 1486 1486 1485 1485 1483 1479 1476 1476 1478 1485 1473 1466 1463 1462 1464 1465 1467 1467 1469 1471 1473 1474 1473 1475 1469 1472 1466 1466 1465 1458 1458 1458 1450 1448 1447 1446 1446 1448 1449 1449 1450 1452 1453
1480 1479 1480 1479 1479 1478 1475 1468 1467 1468 1471 1476 1470 1458 1454 1454 1457 1458 1460 1461 1465 1467 1465 1464 1460 1460 1463 1461 1450 1442 1446 1447 1445 1440 1441 1441 1442 1444 1444 1445 1446 1447 1447 1449
1475 1473 1474 1473 1473 1473 1473 1469 1465 1464 1467 1469 1465 1452 1447 1447 1448 1450 1452 1455 1458 1460 1459 1455 1453 1454 1457 1452 1433 1438 1437 1436 1436 1436 1437 1437 1437 1438 1441 1441 1442 1444 1446 1448
1471 1468 1467 1466 1465 1463 1459 1458 1460 1464 1464 1462 1460 1448 1447 1446 1447 1447 1448 1450 1452 1451 1450 1449 1448 1450 1450 1439 1422 1426 1429 1430 1429 1429 1429 1429 1432 1433 1435 1436 1438 1439 1441 1443
1466 1463 1461 1457 1456 1454 1451 1450 1451 1451 1459 1452 1449 1445 1442 1444 1445 1446 1447 1446 1446 1446 1444 1443 1444 1442 1434 1420 1420 1422 1422 1422 1423 1423 1423 1424 1424 1426 1428 1429 1430 1432 1434 1436
1461 1460 1457 1454 1451 1449 1449 1445 1445 1443 1437 1435 1434 1435 1438 1440 1441 1443 1448 1446 1441 1439 1438 1438 1435 1428 1417 1417 1417 1419 1419 1419 1420 1420 1422 1422 1421 1421 1423 1424 1427 1430 1433 1437
1459 1458 1456 1452 1450 1446 1442 1438 1436 1432 1430 1429 1428 1428 1428 1433 1436 1436 1434 1438 1437 1435 1432 1435 1429 1425 1416 1414 1414 1412 1413 1416 1418 1418 1418 1418 1419 1418 1420 1423 1425 1427 1431 1434
1455 1457 1452 1448 1446 1444 1440 1430 1429 1427 1424 1423 1423 1424 1424 1425 1429 1429 1431 1431 1433 1429 1429 1429 1424 1418 1414 1413 1412 1413 1412 1411 1414 1415 1416 1416 1416 1417 1417 1421 1423 1427 1431 1434
1452 1453 1450 1445 1444 1439 1435 1436 1425 1424 1422 1423 1423 1423 1424 1423 1425 1423 1424 1424 1421 1421 1422 1424 1424 1418 1416 1414 1413 1412 1413 1413 1413 1414 1416 1417 1413 1417 1418 1420 1424 1425 1427 1431
1446 1448 1447 1442 1439 1433 1436 1436 1436 1431 1426 1425 1424 1424 1422 1421 1421 1420 1418 1420 1422 1424 1421 1424 1423 1419 1415 1415 1415 1413 1414 1414 1414 1416 1417 1418 1418 1419 1421 1421 1423 1425 1427 1430
1441 1442 1445 1439 1437 1435 1436 1435 1432 1428 1427 1425 1424 1423 1423 1423 1422 1421 1422 1422 1421 1420 1422 1422 1421 1418 1417 1417 1416 1416 1417 1417 1417 1417 1419 1418 1419 1421 1422 1422 1424 1425 1427 1429
1438 1439 1439 1436 1436 1435 1433 1432 1431 1429 1427 1425 1425 1424 1424 1424 1425 1423 1422 1422 1423 1423 1424 1422 1421 1419 1418 1418 1418 1418 1419 1419 1419 1418 1420 1420 1421 1423 1423 1423 1424 1424 1424 1424
1437 1435 1435 1435 1435 1435 1433 1433 1432 1431 1430 1430 1428 1429 1430 1430 1433 1429 1426 1427 1427 1426 1424 1423 1423 1422 1421 1421 1421 1421 1421 1420 1420 1420 1419 1420 1421 1421 1420 1420 1420 1419 1418 1416